LA5PPA-1 Weather Reports


Display with metric or nautical units.
time (UTC)temp
F
wind
direction
speed
MPH
gust
MPH
rain 1hr
in
rain 24hr
in
rain mn
in
humidity
%
barometer
mb
20260902194348 41 317 2.0 9.0 0.00 0.00 0.00 72 1011.9
20260902194049 42 329 3.0 9.0 0.00 0.00 0.00 71 1011.9
20260902193848 42 261 0.0 7.0 0.00 0.00 0.00 71 1012.0
20260902193348 42 317 0.0 7.0 0.00 0.00 0.00 71 1011.9
20260902192949 42 319 0.0 5.0 0.00 0.00 0.00 71 1011.9
20260902192848 42 341 1.0 6.0 0.00 0.00 0.00 71 1012.0
20260902192348 42 289 2.0 9.0 0.00 0.00 0.00 70 1012.0
20260902191848 42 286 0.0 7.0 0.00 0.00 0.00 70 1012.0
20260902191348 42 307 3.0 10.0 0.00 0.00 0.00 70 1011.8
20260902190848 42 2 0.0 10.0 0.00 0.00 0.00 70 1011.9
20260902190749 42 309 2.0 9.0 0.00 0.00 0.00 70 1011.9
20260902190348 43 291 6.0 9.0 0.00 0.00 0.00 70 1011.8
20260902185848 43 315 2.0 14.0 0.00 0.00 0.00 70 1011.8
20260902185649 43 307 1.0 14.0 0.00 0.00 0.00 69 1011.8
20260902185348 43 351 0.0 3.0 0.00 0.00 0.00 68 1011.8
20260902184848 43 284 1.0 9.0 0.00 0.00 0.00 68 1011.8
20260902184549 43 315 3.0 10.0 0.00 0.00 0.00 67 1011.7
20260902184348 43 293 4.0 10.0 0.00 0.00 0.00 67 1011.7
20260902183848 43 281 7.0 9.0 0.00 0.00 0.00 67 1011.7
20260902183449 44 319 2.0 6.0 0.00 0.00 0.00 67 1011.7
20260902183348 44 323 0.0 8.0 0.00 0.00 0.00 67 1011.7
20260902182848 44 15 1.0 8.0 0.00 0.00 0.00 66 1011.7
20260902182348 44 316 5.0 11.0 0.00 0.00 0.00 66 1011.6
20260902181848 44 319 4.0 13.0 0.00 0.00 0.00 65 1011.6
20260902181348 44 327 4.0 11.0 0.00 0.00 0.00 65 1011.6
20260902181249 45 327 3.0 11.0 0.00 0.00 0.00 65 1011.5
20260902180848 45 309 4.0 11.0 0.00 0.00 0.00 64 1011.6
20260902180348 45 317 8.0 10.0 0.00 0.00 0.00 63 1011.5
20260902180149 45 333 2.0 8.0 0.00 0.00 0.00 63 1011.5
20260902175848 45 331 6.0 12.0 0.00 0.00 0.00 63 1011.5
20260902175348 46 302 5.0 9.0 0.00 0.00 0.00 63 1011.5
20260902175049 46 271 8.0 13.0 0.00 0.00 0.00 62 1011.6
20260902174848 46 281 5.0 13.0 0.00 0.00 0.00 62 1011.5
20260902174348 46 323 3.0 11.0 0.00 0.00 0.00 60 1011.6
20260902173949 47 302 4.0 11.0 0.00 0.00 0.00 60 1011.6
20260902173848 47 288 5.0 11.0 0.00 0.00 0.00 61 1011.5
20260902173348 47 306 4.0 14.0 0.00 0.00 0.00 60 1011.5
20260902172848 47 292 4.0 13.0 0.00 0.00 0.00 59 1011.5
20260902172348 47 322 5.0 14.0 0.00 0.00 0.00 60 1011.6
20260902171848 48 306 6.0 11.0 0.00 0.00 0.00 59 1011.5
20260902171749 48 286 8.0 12.0 0.00 0.00 0.00 59 1011.5
20260902171348 48 316 5.0 17.0 0.00 0.00 0.00 58 1011.5
20260902170848 48 305 5.0 13.0 0.00 0.00 0.00 58 1011.5
20260902170649 48 305 6.0 13.0 0.00 0.00 0.00 57 1011.5
20260902170348 48 316 10.0 12.0 0.00 0.02 0.00 56 1011.5
20260902165848 48 312 5.0 13.0 0.00 0.02 0.00 56 1011.5
20260902165549 49 248 6.0 9.0 0.00 0.02 0.00 56 1011.6
20260902165348 49 275 9.0 12.0 0.00 0.02 0.00 55 1011.6
20260902164848 49 309 8.0 11.0 0.00 0.02 0.00 54 1011.6
20260902164449 49 289 4.0 14.0 0.00 0.02 0.00 54 1011.6
20260902164348 49 299 5.0 14.0 0.00 0.02 0.00 53 1011.7
20260902163848 49 25 5.0 14.0 0.00 0.02 0.00 53 1011.7
20260902163348 50 310 3.0 12.0 0.00 0.02 0.00 51 1011.6
20260902162848 50 300 5.0 14.0 0.00 0.02 0.00 52 1011.6
20260902162348 50 317 5.0 13.0 0.00 0.02 0.00 51 1011.7
20260902162249 50 291 6.0 13.0 0.00 0.02 0.00 51 1011.6
20260902161848 50 282 7.0 11.0 0.00 0.02 0.00 51 1011.7
20260902161348 50 289 4.0 14.0 0.00 0.02 0.00 51 1011.7
20260902161149 50 307 4.0 11.0 0.00 0.02 0.00 50 1011.7
20260902160848 50 286 9.0 21.0 0.00 0.02 0.00 52 1011.6
20260902160348 51 264 9.0 11.0 0.00 0.02 0.00 51 1011.6
20260902160049 50 293 2.0 9.0 0.00 0.02 0.00 51 1011.6
20260902155848 50 302 5.0 13.0 0.00 0.02 0.00 52 1011.7
20260902155348 50 295 7.0 16.0 0.00 0.02 0.00 49 1011.7
20260902154949 51 309 6.0 11.0 0.00 0.02 0.00 51 1011.6
20260902154848 50 296 5.0 12.0 0.00 0.02 0.00 51 1011.7
20260902154348 51 307 5.0 11.0 0.00 0.02 0.00 52 1011.8
20260902153848 51 316 7.0 14.0 0.00 0.02 0.00 51 1011.9
20260902153348 51 320 5.0 16.0 0.00 0.02 0.00 53 1011.9
20260902152848 51 248 12.0 16.0 0.00 0.02 0.00 51 1011.9
20260902152749 51 307 6.0 16.0 0.00 0.02 0.00 50 1011.9
20260902152348 51 268 9.0 21.0 0.00 0.02 0.00 52 1011.8
20260902151848 51 347 6.0 23.0 0.00 0.02 0.00 50 1011.7
20260902151651 51 298 5.0 18.0 0.00 0.02 0.00 50 1011.6
20260902151348 51 278 4.0 17.0 0.00 0.02 0.00 50 1011.6
20260902150848 52 289 4.0 13.0 0.00 0.02 0.00 49 1011.6
20260902150550 52 258 5.0 11.0 0.00 0.02 0.00 48 1011.6
20260902150348 52 316 5.0 13.0 0.00 0.02 0.00 52 1011.7
20260902145848 51 284 7.0 13.0 0.00 0.02 0.00 50 1011.8
20260902145452 52 327 7.0 16.0 0.00 0.02 0.00 48 1011.7
20260902145348 52 307 10.0 16.0 0.00 0.02 0.00 49 1011.7
20260902144848 52 330 4.0 14.0 0.00 0.02 0.00 50 1011.7
20260902144348 52 291 7.0 13.0 0.00 0.02 0.00 49 1011.7
20260902143848 52 288 7.0 12.0 0.00 0.02 0.00 48 1011.7
20260902143348 53 323 8.0 23.0 0.00 0.02 0.00 50 1011.7
20260902143249 53 312 4.0 23.0 0.00 0.02 0.00 50 1011.7
20260902142848 53 303 3.0 15.0 0.00 0.02 0.00 50 1011.6
20260902142348 52 281 4.0 14.0 0.00 0.02 0.00 51 1011.7
20260902142150 52 320 4.0 11.0 0.00 0.02 0.00 51 1011.7
20260902141848 52 5 3.0 13.0 0.00 0.02 0.00 54 1011.7
20260902141348 52 320 5.0 14.0 0.00 0.02 0.00 51 1011.7
20260902141049 52 286 5.0 14.0 0.00 0.02 0.00 51 1011.7
20260902140848 52 313 4.0 12.0 0.00 0.02 0.00 50 1011.7
20260902140348 53 312 4.0 15.0 0.00 0.02 0.00 51 1011.7
20260902135950 53 293 7.0 15.0 0.00 0.02 0.00 53 1011.7
20260902135848 53 320 6.0 13.0 0.00 0.02 0.00 52 1011.7
20260902135348 53 296 4.0 16.0 0.00 0.02 0.00 53 1011.7
20260902134848 53 271 5.0 9.0 0.00 0.02 0.00 53 1011.6
20260902134348 52 307 5.0 19.0 0.00 0.02 0.00 52 1011.6
20260902133848 53 258 9.0 12.0 0.00 0.02 0.00 53 1011.6
20260902133750 53 310 6.0 12.0 0.00 0.02 0.00 52 1011.6
20260902133348 53 184 8.0 17.0 0.00 0.02 0.00 51 1011.6
20260902132848 53 248 4.0 11.0 0.00 0.02 0.00 54 1011.5
20260902132650 52 254 8.0 11.0 0.00 0.02 0.00 53 1011.5
20260902132348 52 334 5.0 12.0 0.00 0.02 0.00 51 1011.5
20260902131848 53 296 5.0 11.0 0.00 0.02 0.00 53 1011.3
20260902131550 53 315 4.0 9.0 0.00 0.02 0.00 52 1011.3
20260902131348 52 312 3.0 11.0 0.00 0.02 0.00 53 1011.5
20260902130848 52 315 3.0 9.0 0.00 0.02 0.00 54 1011.3
20260902130450 52 293 6.0 11.0 0.00 0.02 0.00 53 1011.5
20260902130349 52 336 1.0 11.0 0.00 0.02 0.00 52 1011.3
20260902125848 53 329 8.0 11.0 0.00 0.02 0.00 50 1011.5
20260902125349 55 9 8.0 16.0 0.00 0.02 0.00 51 1011.3
20260902124849 54 279 8.0 21.0 0.00 0.02 0.00 49 1011.2
20260902124349 55 324 4.0 12.0 0.00 0.02 0.00 49 1011.2
20260902124250 55 253 3.0 13.0 0.00 0.02 0.00 49 1011.2
20260902123849 54 320 6.0 13.0 0.00 0.02 0.00 48 1011.2
20260902123349 54 309 10.0 15.0 0.00 0.02 0.00 50 1011.2
20260902123150 54 265 5.0 13.0 0.00 0.02 0.00 51 1011.2
20260902122849 53 286 8.0 13.0 0.00 0.02 0.00 49 1011.2
20260902122349 53 281 12.0 18.0 0.00 0.02 0.00 50 1011.3
20260902122050 52 302 4.0 15.0 0.00 0.02 0.00 53 1011.2
20260902121849 52 264 9.0 16.0 0.00 0.02 0.00 54 1011.2
20260902121349 51 324 5.0 11.0 0.00 0.02 0.00 51 1011.2
20260902120952 51 284 8.0 11.0 0.00 0.02 0.00 52 1011.3
20260902120849 51 333 6.0 11.0 0.00 0.02 0.00 52 1011.3
20260902120349 52 291 3.0 12.0 0.00 0.02 0.00 53 1011.3
20260902115849 53 313 7.0 9.0 0.00 0.02 0.00 51 1011.2
20260902115349 52 277 3.0 15.0 0.00 0.02 0.00 53 1011.2
20260902114849 52 310 3.0 13.0 0.00 0.02 0.00 52 1011.3
20260902114750 52 286 4.0 9.0 0.00 0.02 0.00 53 1011.2
20260902114349 52 274 8.0 10.0 0.00 0.02 0.00 54 1011.2
20260902113849 51 310 4.0 11.0 0.00 0.02 0.00 53 1011.2
20260902113650 51 306 0.0 15.0 0.00 0.02 0.00 54 1011.2
20260902113349 51 305 1.0 15.0 0.00 0.02 0.00 53 1011.2
20260902112849 52 262 8.0 16.0 0.00 0.02 0.00 52 1011.2
20260902112550 51 293 7.0 11.0 0.00 0.02 0.00 53 1011.3
20260902112349 51 260 7.0 12.0 0.00 0.02 0.00 56 1011.2
20260902111849 51 316 5.0 13.0 0.00 0.02 0.00 54 1011.2
20260902111450 51 312 4.0 13.0 0.00 0.02 0.00 52 1011.2
20260902111349 51 324 4.0 10.0 0.00 0.02 0.00 55 1011.3
20260902110849 51 255 1.0 9.0 0.00 0.02 0.00 55 1011.2
20260902110349 51 313 5.0 12.0 0.00 0.02 0.00 52 1011.2
20260902105849 52 255 6.0 11.0 0.00 0.02 0.00 54 1011.1
20260902105349 52 299 3.0 10.0 0.00 0.02 0.00 52 1011.2
20260902105250 52 233 6.0 10.0 0.00 0.02 0.00 51 1011.2
20260902104849 52 299 2.0 11.0 0.00 0.02 0.00 54 1011.2
20260902104349 52 306 8.0 13.0 0.00 0.02 0.00 53 1011.2
20260902104150 52 262 5.0 13.0 0.00 0.02 0.00 53 1011.1
20260902103849 52 307 6.0 9.0 0.00 0.02 0.00 53 1011.0
20260902103349 51 300 6.0 12.0 0.00 0.02 0.00 55 1011.0
20260902103052 51 319 8.0 12.0 0.00 0.02 0.00 55 1011.1
20260902102849 51 289 6.0 10.0 0.00 0.02 0.00 54 1011.0
20260902102349 51 310 5.0 9.0 0.00 0.02 0.00 55 1011.2
20260902101950 51 278 3.0 19.0 0.00 0.02 0.00 55 1011.1
20260902101849 50 274 4.0 19.0 0.00 0.02 0.00 54 1011.1
20260902101349 50 250 4.0 14.0 0.00 0.02 0.00 55 1011.1
20260902100849 50 310 7.0 14.0 0.00 0.02 0.00 57 1011.1
20260902100349 50 251 3.0 13.0 0.00 0.02 0.00 56 1011.2
20260902095849 49 298 5.0 16.0 0.00 0.02 0.00 56 1011.0
20260902095750 49 264 11.0 16.0 0.00 0.02 0.00 56 1011.0
20260902095349 49 229 11.0 13.0 0.00 0.02 0.00 61 1011.0
20260902094849 48 295 4.0 19.0 0.00 0.02 0.00 61 1011.2
20260902094650 48 275 5.0 19.0 0.00 0.02 0.00 60 1011.3
20260902094349 48 282 8.0 11.0 0.00 0.02 0.00 63 1011.5
20260902093849 49 306 5.0 11.0 0.00 0.02 0.00 62 1011.3
20260902093550 49 295 3.0 8.0 0.00 0.02 0.00 63 1011.3
20260902093349 49 305 3.0 8.0 0.00 0.02 0.00 64 1011.3
20260902092849 48 319 4.0 10.0 0.00 0.02 0.00 66 1011.5
20260902092450 48 278 9.0 11.0 0.00 0.02 0.00 66 1011.2
20260902092349 48 292 7.0 12.0 0.00 0.02 0.00 66 1011.2
20260902091849 48 303 7.0 13.0 0.00 0.02 0.00 66 1011.1
20260902091349 47 296 5.0 12.0 0.00 0.02 0.00 66 1011.1
20260902090849 47 300 7.0 12.0 0.00 0.02 0.00 66 1011.2
20260902090349 48 281 6.0 11.0 0.00 0.02 0.00 68 1011.5
20260902090250 48 306 2.0 11.0 0.00 0.02 0.00 67 1011.5
20260902085849 48 323 5.0 14.0 0.00 0.02 0.00 66 1011.5
20260902085349 48 313 11.0 13.0 0.00 0.02 0.00 64 1011.5
20260902085150 48 302 3.0 13.0 0.00 0.02 0.00 64 1011.3
20260902084849 48 330 3.0 15.0 0.00 0.02 0.00 67 1011.3
20260902084349 48 309 14.0 14.0 0.00 0.02 0.00 66 1011.3
20260902084050 48 288 4.0 10.0 0.00 0.02 0.00 63 1011.2
20260902083849 48 303 7.0 10.0 0.00 0.02 0.00 64 1011.3
20260902083349 48 289 3.0 9.0 0.00 0.02 0.00 65 1011.2
20260902082950 47 296 2.0 9.0 0.00 0.02 0.00 65 1011.3
20260902082849 47 296 4.0 9.0 0.00 0.02 0.00 64 1011.3
20260902082349 47 302 3.0 11.0 0.00 0.02 0.00 65 1011.2
20260902081849 47 341 1.0 10.0 0.00 0.02 0.00 66 1011.2
20260902081349 47 296 6.0 9.0 0.00 0.02 0.00 66 1011.1
20260902080849 47 291 3.0 11.0 0.00 0.02 0.00 66 1011.0
20260902080750 47 19 1.0 11.0 0.00 0.02 0.00 67 1011.2
20260902080349 47 333 2.0 6.0 0.00 0.02 0.00 68 1011.2
20260902075849 46 268 0.0 9.0 0.00 0.02 0.00 67 1011.2
20260902075650 46 333 4.0 9.0 0.00 0.02 0.00 68 1011.2
20260902075349 46 248 4.0 9.0 0.00 0.02 0.00 69 1011.1
20260902074849 46 310 5.0 12.0 0.00 0.02 0.00 70 1011.1
20260902074550 45 302 2.0 16.0 0.00 0.02 0.00 69 1011.1
20260902074349 45 323 4.0 16.0 0.00 0.02 0.00 69 1011.1
20260902073849 45 237 2.0 8.0 0.00 0.02 0.00 71 1011.1
20260902073450 45 317 4.0 8.0 0.00 0.02 0.00 70 1011.1
20260902073349 45 310 4.0 8.0 0.00 0.02 0.00 71 1011.1
20260902072849 44 284 2.0 8.0 0.00 0.02 0.00 71 1011.0
20260902072349 44 326 6.0 11.0 0.00 0.02 0.00 71 1011.1
20260902071849 44 329 7.0 12.0 0.00 0.02 0.00 72 1011.0
20260902071349 44 312 2.0 9.0 0.00 0.02 0.00 72 1010.9
20260902071250 44 316 7.0 9.0 0.00 0.02 0.00 73 1010.9
20260902070849 44 322 1.0 7.0 0.00 0.02 0.00 74 1010.9
20260902070349 43 305 2.0 6.0 0.00 0.02 0.00 74 1010.9
20260902070150 43 309 2.0 7.0 0.00 0.02 0.00 74 1010.9
20260902065849 43 322 3.0 7.0 0.00 0.02 0.00 74 1010.9
20260902065349 43 330 5.0 7.0 0.00 0.02 0.00 75 1010.9
20260902065052 43 316 3.0 7.0 0.00 0.02 0.00 75 1010.9
20260902064849 43 323 3.0 6.0 0.00 0.02 0.00 75 1010.9
20260902064349 42 303 3.0 4.0 0.00 0.02 0.00 76 1010.9
20260902063950 42 309 2.0 3.0 0.00 0.02 0.00 76 1010.9
20260902063849 42 302 0.0 3.0 0.00 0.02 0.00 76 1010.9
20260902063349 42 296 0.0 3.0 0.00 0.02 0.00 77 1011.0
20260902062849 42 316 1.0 4.0 0.00 0.02 0.00 77 1010.9
20260902062349 42 233 0.0 1.0 0.00 0.02 0.00 78 1011.0
20260902061849 42 305 0.0 0.0 0.00 0.02 0.00 78 1010.9
20260902061750 41 305 0.0 5.0 0.00 0.02 0.00 78 1010.9
20260902061349 41 305 0.0 5.0 0.00 0.02 0.00 78 1011.0
20260902060849 41 271 0.0 3.0 0.00 0.02 0.00 79 1011.0
20260902060650 41 289 1.0 5.0 0.00 0.02 0.00 79 1011.0
20260902060349 41 226 3.0 5.0 0.00 0.02 0.00 79 1011.0
20260902055849 41 317 2.0 2.0 0.00 0.02 0.00 80 1011.0
20260902055550 41 299 0.0 2.0 0.00 0.02 0.00 80 1011.0
20260902055349 41 309 0.0 4.0 0.00 0.02 0.00 80 1011.0
20260902054849 41 302 0.0 4.0 0.00 0.02 0.00 81 1011.0
20260902054450 40 341 2.0 4.0 0.00 0.02 0.00 82 1010.9
20260902054349 40 333 2.0 4.0 0.00 0.02 0.00 82 1010.9
20260902053849 40 357 0.0 2.0 0.00 0.02 0.00 82 1010.9
20260902053349 41 267 1.0 2.0 0.00 0.02 0.00 82 1010.9
20260902052849 40 315 0.0 4.0 0.00 0.02 0.00 82 1010.9
20260902052349 40 300 1.0 3.0 0.00 0.02 0.00 82 1010.9
20260902052250 41 298 1.0 3.0 0.00 0.02 0.00 83 1011.0
20260902051849 41 279 0.0 4.0 0.00 0.02 0.00 83 1011.0
20260902051349 41 262 1.0 5.0 0.00 0.02 0.00 83 1011.0
20260902051150 41 296 2.0 5.0 0.00 0.02 0.00 83 1010.9
20260902050849 41 300 2.0 7.0 0.00 0.02 0.00 84 1010.9
20260902050349 41 293 1.0 7.0 0.00 0.03 0.00 84 1010.9
20260902050050 41 291 0.0 7.0 0.00 0.03 0.00 84 1010.9
20260902045849 41 274 3.0 4.0 0.00 0.03 0.00 85 1010.9
20260902045349 42 288 1.0 6.0 0.00 0.03 0.00 85 1010.8
20260902044950 42 293 2.0 6.0 0.00 0.03 0.00 85 1010.8
20260902044849 42 284 1.0 5.0 0.00 0.03 0.00 85 1010.8
20260902044349 42 278 1.0 5.0 0.00 0.03 0.00 85 1010.7
20260902043849 42 284 2.0 5.0 0.00 0.03 0.00 85 1010.7
20260902043349 42 306 2.0 2.0 0.00 0.03 0.00 85 1010.7
20260902042849 42 292 0.0 2.0 0.00 0.03 0.00 85 1010.7
20260902042750 42 292 0.0 4.0 0.00 0.03 0.00 85 1010.7
20260902042349 42 330 1.0 6.0 0.00 0.03 0.00 84 1010.7
20260902041849 42 288 4.0 4.0 0.00 0.03 0.00 84 1010.6
20260902041650 43 281 0.0 4.0 0.00 0.03 0.00 84 1010.6
20260902041349 43 293 2.0 4.0 0.00 0.03 0.00 84 1010.6
20260902040849 43 298 1.0 6.0 0.00 0.03 0.00 83 1010.6
20260902040550 43 279 2.0 6.0 0.00 0.03 0.00 83 1010.6
20260902040349 43 302 1.0 3.0 0.00 0.03 0.00 83 1010.7
20260902035849 43 323 0.0 4.0 0.00 0.03 0.00 82 1010.7
20260902035450 43 320 0.0 4.0 0.00 0.03 0.00 81 1010.6
20260902035349 43 288 2.0 5.0 0.00 0.03 0.00 81 1010.6
20260902034849 44 327 3.0 8.0 0.00 0.03 0.00 81 1010.6
20260902034349 44 310 2.0 9.0 0.00 0.03 0.00 81 1010.6
20260902033849 44 28 7.0 8.0 0.00 0.03 0.00 81 1010.6
20260902033349 44 0 0.0 6.0 0.00 0.03 0.00 81 1010.7
20260902033250 44 348 2.0 4.0 0.00 0.03 0.00 82 1010.7
20260902032849 45 350 0.0 8.0 0.00 0.03 0.00 81 1010.7
20260902032349 45 248 2.0 6.0 0.00 0.03 0.00 81 1010.7
20260902032151 45 322 2.0 6.0 0.00 0.03 0.00 81 1010.7
20260902031849 45 296 2.0 7.0 0.00 0.03 0.00 82 1010.7
20260902031349 45 288 6.0 9.0 0.00 0.03 0.00 82 1010.7
20260902031051 45 300 4.0 9.0 0.00 0.03 0.00 83 1010.7
20260902030849 45 331 3.0 9.0 0.00 0.03 0.00 83 1010.6
20260902030349 45 315 4.0 9.0 0.00 0.03 0.00 84 1010.6
20260902025951 46 295 4.0 8.0 0.00 0.03 0.00 84 1010.6
20260902025849 46 303 1.0 7.0 0.00 0.03 0.00 84 1010.6
20260902025349 46 333 4.0 6.0 0.00 0.03 0.00 83 1010.6
20260902024849 46 274 2.0 5.0 0.00 0.03 0.00 82 1010.4
20260902024349 46 215 3.0 5.0 0.00 0.03 0.00 82 1010.4
20260902023849 46 237 2.0 7.0 0.00 0.03 0.00 82 1010.3
20260902023751 46 284 2.0 7.0 0.00 0.03 0.00 82 1010.6
20260902023349 46 262 2.0 6.0 0.00 0.03 0.00 83 1010.6
20260902022849 46 272 5.0 5.0 0.00 0.03 0.00 83 1010.7
20260902022651 45 313 0.0 3.0 0.00 0.03 0.00 83 1010.7
20260902022349 45 281 1.0 5.0 0.00 0.03 0.00 83 1010.8
20260902021849 45 285 3.0 4.0 0.00 0.03 0.00 83 1010.8
20260902021551 45 291 0.0 2.0 0.00 0.03 0.00 82 1010.8
20260902021349 45 334 2.0 5.0 0.00 0.03 0.00 83 1010.8
20260902020849 46 313 0.0 1.0 0.00 0.03 0.00 83 1010.7
20260902020451 46 285 0.0 2.0 0.00 0.03 0.00 83 1010.7
20260902020349 46 285 0.0 2.0 0.00 0.03 0.00 83 1010.7
20260902015850 45 293 0.0 3.0 0.00 0.03 0.00 83 1010.7
20260902015350 45 279 0.0 1.0 0.00 0.03 0.00 83 1010.7
20260902014850 45 292 0.0 2.0 0.00 0.03 0.00 84 1010.7
20260902014350 45 82 0.0 2.0 0.00 0.03 0.00 84 1010.8
20260902014251 45 82 0.0 2.0 0.00 0.03 0.00 84 1010.7
20260902013850 45 213 0.0 1.0 0.00 0.03 0.00 84 1010.8
20260902013350 44 132 0.0 0.0 0.00 0.03 0.00 84 1010.8
20260902013151 44 132 0.0 0.0 0.00 0.03 0.00 84 1010.8
20260902012850 44 132 0.0 0.0 0.00 0.03 0.00 84 1010.8
20260902012350 44 132 0.0 0.0 0.00 0.03 0.00 84 1010.8
20260902012051 44 132 0.0 0.0 0.00 0.03 0.00 84 1010.8
20260902011850 44 132 0.0 0.0 0.00 0.03 0.00 84 1010.8
20260902011350 44 132 0.0 1.0 0.00 0.03 0.00 84 1010.7
20260902010951 44 149 0.0 2.0 0.00 0.03 0.00 84 1010.7
20260902010852 44 111 1.0 2.0 0.00 0.03 0.00 84 1010.7
20260902010350 43 105 1.0 2.0 0.00 0.03 0.00 84 1010.8
20260902005850 43 109 1.0 2.0 0.00 0.03 0.00 84 1010.8
20260902005350 43 157 0.0 0.0 0.00 0.03 0.00 83 1010.9
20260902004850 43 157 0.0 0.0 0.00 0.03 0.00 83 1010.9
20260902004751 43 157 0.0 0.0 0.00 0.03 0.00 83 1010.9
20260902004350 43 157 0.0 0.0 0.00 0.03 0.00 82 1011.0
20260902003850 44 157 0.0 0.0 0.00 0.03 0.00 82 1011.0
20260902003651 44 157 0.0 0.0 0.00 0.03 0.00 82 1011.0
20260902003350 44 157 0.0 2.0 0.00 0.03 0.00 82 1011.1
20260902002850 44 322 0.0 0.0 0.00 0.03 0.00 81 1011.0
20260902002551 44 322 0.0 0.0 0.00 0.03 0.00 81 1011.0
20260902002350 44 322 0.0 0.0 0.00 0.03 0.00 81 1011.0
20260902001850 44 322 0.0 0.0 0.00 0.03 0.00 81 1011.1
20260902001451 44 322 0.0 3.0 0.00 0.03 0.00 81 1011.1
20260902001350 44 322 0.0 3.0 0.00 0.03 0.00 81 1011.1
20260902000850 44 354 0.0 4.0 0.00 0.03 0.00 81 1011.1
20260902000352 44 254 4.0 4.0 0.00 0.03 0.00 81 1011.2
20260901235850 44 205 0.0 1.0 0.00 0.03 0.00 80 1011.3
20260901235350 44 296 1.0 1.0 0.00 0.03 0.00 80 1011.5
20260901235251 45 167 1.0 1.0 0.00 0.03 0.00 80 1011.3
20260901234850 45 167 0.0 0.0 0.00 0.03 0.00 80 1011.5
20260901234350 45 279 0.0 2.0 0.00 0.03 0.00 80 1011.5
20260901234151 45 279 0.0 2.0 0.00 0.03 0.00 80 1011.6
20260901233850 45 281 2.0 2.0 0.00 0.03 0.00 80 1011.6
20260901233350 45 303 0.0 0.0 0.00 0.03 0.00 80 1011.6
20260901233051 45 303 0.0 0.0 0.00 0.03 0.00 79 1011.6
20260901232850 45 303 0.0 0.0 0.00 0.03 0.00 79 1011.6
20260901232350 46 303 0.0 0.0 0.00 0.03 0.00 79 1011.6
20260901231951 46 303 0.0 0.0 0.00 0.03 0.00 79 1011.7
20260901231850 46 303 0.0 0.0 0.00 0.03 0.00 79 1011.7
20260901231350 46 303 0.0 0.0 0.00 0.03 0.00 79 1011.6
20260901230850 46 303 0.0 0.0 0.00 0.03 0.00 78 1011.7
20260901230350 46 303 0.0 0.0 0.00 0.03 0.00 77 1011.6
20260901225850 46 303 0.0 0.0 0.00 0.03 0.00 76 1011.7
20260901225751 46 303 0.0 0.0 0.00 0.03 0.00 76 1011.7
20260901225350 46 303 0.0 0.0 0.00 0.03 0.00 76 1011.7
20260901224850 46 303 0.0 0.0 0.00 0.03 0.00 76 1011.7
20260901224651 46 303 0.0 0.0 0.00 0.03 0.00 75 1011.8
20260901224350 47 303 0.0 0.0 0.00 0.03 0.00 75 1011.8
20260901223850 47 303 0.0 0.0 0.00 0.03 0.00 74 1011.9
20260901223551 47 303 0.0 0.0 0.00 0.03 0.00 74 1011.9
20260901223350 47 303 0.0 3.0 0.00 0.03 0.00 74 1011.8
20260901222850 47 319 1.0 4.0 0.00 0.03 0.00 74 1011.9
20260901222451 47 236 3.0 5.0 0.00 0.03 0.00 73 1011.9
20260901222350 47 298 2.0 5.0 0.00 0.03 0.00 73 1011.9
20260901221850 47 277 0.0 7.0 0.00 0.03 0.00 73 1011.9
20260901221350 47 336 0.0 3.0 0.00 0.03 0.00 73 1011.9
20260901220850 47 272 1.0 4.0 0.00 0.03 0.00 73 1011.9
20260901220350 47 257 1.0 6.0 0.00 0.03 0.00 73 1011.9
20260901220251 47 222 2.0 6.0 0.00 0.03 0.00 73 1011.9
20260901215850 47 189 0.0 5.0 0.00 0.03 0.00 74 1011.9
20260901215350 47 223 4.0 6.0 0.00 0.03 0.00 74 1011.9
20260901215151 47 237 3.0 5.0 0.00 0.03 0.00 74 1011.9
20260901214850 47 265 3.0 5.0 0.00 0.03 0.03 74 1011.9
20260901214350 46 244 2.0 7.0 0.00 0.03 0.03 75 1012.0
20260901214051 46 272 3.0 7.0 0.00 0.03 0.03 76 1012.0
20260901213850 46 240 1.0 7.0 0.00 0.03 0.03 76 1012.0
20260901213350 46 258 3.0 5.0 0.00 0.03 0.03 76 1012.1
20260901212951 46 264 3.0 5.0 0.00 0.03 0.03 77 1012.0
20260901212850 46 270 1.0 5.0 0.00 0.03 0.03 77 1012.0
20260901212350 46 310 3.0 6.0 0.00 0.03 0.03 78 1012.0
20260901211850 46 281 2.0 5.0 0.00 0.03 0.03 78 1012.1
20260901211350 46 257 2.0 4.0 0.00 0.03 0.03 78 1012.0
20260901210850 46 248 0.0 4.0 0.00 0.03 0.03 78 1012.1
20260901210751 46 275 1.0 6.0 0.00 0.03 0.03 78 1012.1
20260901210350 46 303 0.0 8.0 0.00 0.03 0.03 78 1012.1
20260901205850 46 264 3.0 7.0 0.00 0.03 0.03 80 1012.1
20260901205651 46 274 6.0 6.0 0.00 0.03 0.03 81 1012.1
20260901205350 46 270 0.0 6.0 0.00 0.03 0.03 81 1012.2
20260901204850 46 271 1.0 2.0 0.00 0.03 0.03 82 1012.1
20260901204551 46 122 0.0 3.0 0.00 0.03 0.03 82 1012.2
20260901204350 46 284 0.0 3.0 0.00 0.03 0.03 82 1012.2
20260901203850 45 84 1.0 4.0 0.00 0.03 0.03 83 1012.1
20260901203451 45 264 0.0 8.0 0.00 0.03 0.03 84 1012.2
20260901203350 45 195 2.0 8.0 0.00 0.03 0.03 84 1012.2
20260901202850 45 147 1.0 2.0 0.00 0.03 0.03 84 1012.4
20260901202350 45 106 0.0 0.0 0.00 0.03 0.03 84 1012.2
20260901201850 45 106 0.0 3.0 0.00 0.03 0.03 83 1012.2
20260901201350 46 32 0.0 1.0 0.00 0.03 0.03 83 1012.4
20260901201251 46 32 0.0 1.0 0.00 0.03 0.03 83 1012.4
20260901200850 46 32 0.0 0.0 0.00 0.03 0.03 83 1012.2
20260901200350 46 32 0.0 2.0 0.00 0.03 0.03 83 1012.4
20260901200151 46 272 0.0 2.0 0.00 0.03 0.03 83 1012.4
20260901195850 46 168 0.0 0.0 0.00 0.03 0.03 83 1012.5
20260901195350 47 168 0.0 3.0 0.00 0.03 0.03 83 1012.5
20260901195051 47 123 2.0 3.0 0.00 0.03 0.03 84 1012.5
20260901194850 47 68 0.0 0.0 0.00 0.03 0.03 83 1012.5